Location: Bright Sky Observatory
(40.7821°N, 74.2425°W)
Time: 20:48:39
(UTC-05:00)

Amateur Radio Satellites - All Passes

Search period start: 22 November 2017 20:18
Search period end: 23 November 2017 20:18
Location: Bright Sky Observatory, 40.7821°N, 74.2425°W

Satellite Date Start Highest point End Downlink Frequencies (MHz)
Time Altitude Azimuth
ISS 22 Nov 20:26:33 20:29:49 80° 324° (NW) 20:33:06 437.550
AO-73 22 Nov 20:38:21 20:40:56 16° 268° (W) 20:43:31 145.935
EO-88 22 Nov 20:52:11 20:55:41 49° 74° (ENE) 20:59:11 145.990 - 145.960
Oscar 11 22 Nov 20:52:38 20:55:21 16° 268° (W) 20:58:05 .
Max Valier Satellite 22 Nov 20:57:44 21:01:23 88° 78° (ENE) 21:05:03 145.860
NO-84 22 Nov 21:10:14 21:14:25 57° 38° (NE) 21:18:37 435.350 FM
LO-87 22 Nov 21:13:47 21:14:45 11° 65° (ENE) 21:15:42 145.935 - 145.965
nSIGHT-1 22 Nov 21:13:52 21:16:41 27° 335° (NNW) 21:19:30 .
STRAND 1 22 Nov 21:15:44 21:17:43 12° 301° (WNW) 21:19:42 437.568
FO-29 22 Nov 21:16:40 21:24:21 59° 290° (WNW) 21:31:31 435.910
SO-50 22 Nov 21:19:36 21:24:04 90° 270° (W) 21:28:36 436.795
O/OREOS (USA 219) 22 Nov 21:34:45 21:37:46 17° 55° (NE) 21:40:45 437.305
UNISAT 6 22 Nov 21:39:27 21:43:42 62° 101° (E) 21:47:54 437.425
TIGRISAT 22 Nov 21:43:18 21:47:33 62° 101° (ESE) 21:51:43 435.000
DELFI C3 22 Nov 21:49:29 21:51:59 16° 267° (W) 21:54:32 145.870
RS-15 22 Nov 21:51:44 22:01:26 26° 340° (NNW) 22:10:58 29.354- 29.394
ISS 22 Nov 22:04:21 22:06:43 18° 343° (NNW) 22:09:05 437.550
PRISM 22 Nov 22:06:28 22:10:23 39° 99° (E) 22:14:17 437.425
ESTCUBE 1 22 Nov 22:18:41 22:23:01 53° 73° (ENE) 22:27:24 437.505/2401.250
VELOX 1 22 Nov 22:33:53 22:35:52 13° 62° (ENE) 22:37:50 145.980
EO-79 22 Nov 22:43:46 22:44:34 10° 90° (E) 22:45:22 145.935-145.965
LO-87 22 Nov 22:44:12 22:47:41 48° 260° (W) 22:51:12 145.935 - 145.965
NO-84 22 Nov 22:48:16 22:51:29 21° 235° (SW) 22:54:39 435.350 FM
nSIGHT-1 22 Nov 22:52:16 22:53:44 12° 354° (N) 22:55:13 .
POLYITAN 1 22 Nov 22:57:58 23:00:34 16° 92° (E) 23:03:10 437.675
SO-50 22 Nov 23:02:50 23:05:11 14° 321° (NW) 23:07:33 436.795
FO-29 22 Nov 23:04:39 23:07:40 13° 310° (NW) 23:10:38 435.910
AIST 2D 22 Nov 23:10:13 23:13:45 77° 101° (E) 23:17:17 435.315
PCSat 22 Nov 23:12:26 23:17:29 42° 112° (ESE) 23:22:35 145.827
O/OREOS (USA 219) 22 Nov 23:13:05 23:17:29 51° 253° (WSW) 23:21:50 437.305
SPROUT 22 Nov 23:14:36 23:18:45 51° 73° (ENE) 23:22:54 437.525
UNISAT 6 22 Nov 23:18:14 23:19:51 12° 297° (WNW) 23:21:29 437.425
QB50P2 22 Nov 23:20:30 23:24:17 32° 97° (E) 23:28:03 145.880/145.840
TIGRISAT 22 Nov 23:22:05 23:23:41 12° 297° (WNW) 23:25:16 435.000
PRISM 22 Nov 23:42:35 23:45:19 17° 295° (WNW) 23:48:04 437.425
ISS 22 Nov 23:42:41 23:44:11 13° 3° (N) 23:45:42 437.550
UKube-1 22 Nov 23:51:54 23:53:40 12° 62° (ENE) 23:55:25 .
ESTCUBE 1 22 Nov 23:57:47 00:00:08 14° 269° (W) 00:02:30 437.505/2401.250
50 SAT 23 Nov 00:00:15 00:02:37 19° 69° (ENE) 00:05:00 437.505
DUCHIFAT 1 23 Nov 00:06:48 00:10:58 77° 101° (E) 00:15:07 145.980
VELOX 1 23 Nov 00:07:20 00:11:44 65° 259° (WSW) 00:16:10 145.980
RS-15 23 Nov 00:10:26 00:19:43 24° 16° (NNE) 00:28:40 29.354- 29.394
EO-79 23 Nov 00:16:33 00:20:42 62° 286° (WNW) 00:24:50 145.935-145.965
NANOSAT C BR1 23 Nov 00:18:30 00:22:39 67° 286° (WNW) 00:26:47 145.865
nSIGHT-1 23 Nov 00:28:55 00:30:59 16° 15° (NNE) 00:33:02 .
POLYITAN 1 23 Nov 00:32:35 00:36:32 41° 288° (WNW) 00:40:27 437.675
DX 1 23 Nov 00:46:45 00:51:06 77° 75° (ENE) 00:55:30 434.975-435.025
Oscar 19 23 Nov 00:47:02 00:51:27 28° 96° (E) 00:55:50 437.125/150
BUGSAT 1 23 Nov 00:51:56 00:55:55 57° 100° (E) 00:59:51 437.445
SPROUT 23 Nov 00:52:45 00:54:54 14° 269° (W) 00:57:03 437.525
PCSat 23 Nov 00:56:19 01:01:00 29° 310° (NW) 01:05:43 145.827
QB50P2 23 Nov 00:56:42 00:59:52 21° 293° (WNW) 01:03:00 145.880/145.840
BEESAT 3 23 Nov 00:58:07 01:00:20 15° 110° (ESE) 01:02:34 437.485
ISS 23 Nov 01:18:50 01:21:33 24° 23° (NNE) 01:24:17 437.550
UKube-1 23 Nov 01:24:50 01:29:07 65° 259° (W) 01:33:26 .
Gurwin Techsat 1B 23 Nov 01:27:06 01:32:15 48° 99° (E) 01:37:21 435.225
BEESAT 23 Nov 01:28:40 01:32:09 21° 65° (ENE) 01:35:38 436.000
50 SAT 23 Nov 01:32:11 01:34:35 19° 265° (W) 01:37:00 437.505
MOZHAYETS 4 23 Nov 01:33:20 01:37:08 27° 68° (ENE) 01:40:57
ITUPSAT 1 23 Nov 01:39:14 01:43:07 25° 66° (ENE) 01:47:00 437.325
M-CUBED/EXP-1 PRIME 23 Nov 01:51:31 01:54:27 17° 97° (E) 01:57:24 437.505
CUBESAT XI-V 23 Nov 01:53:56 01:54:12 10° 60° (ENE) 01:54:29 437.345
nSIGHT-1 23 Nov 02:04:33 02:07:43 60° 33° (NNE) 02:10:52 .
AO-7 23 Nov 02:08:34 02:14:26 21° 92° (E) 02:20:17 .
BEESAT 2 23 Nov 02:12:56 02:16:19 27° 114° (ESE) 02:19:45 435.950
RS-15 23 Nov 02:24:06 02:35:47 55° 47° (NE) 02:46:47 29.354- 29.394
Oscar 19 23 Nov 02:26:06 02:30:46 35° 292° (WNW) 02:35:25 437.125/150
BUGSAT 1 23 Nov 02:29:17 02:30:46 12° 297° (WNW) 02:32:14 437.445
BEESAT 3 23 Nov 02:33:36 02:37:27 48° 306° (NW) 02:41:21 437.485
AO-85 23 Nov 02:38:01 02:40:33 17° 110° (ESE) 02:43:08 145.980
ITAMSAT 1 23 Nov 02:44:13 02:48:02 20° 93° (E) 02:51:49 435.822/435.867
ISS 23 Nov 02:55:01 02:58:13 53° 221° (SW) 03:01:23 437.550
BEESAT 23 Nov 03:05:04 03:09:36 43° 261° (W) 03:14:10 436.000
Gurwin Techsat 1B 23 Nov 03:07:47 03:11:50 23° 296° (WNW) 03:15:53 435.225
MOZHAYETS 4 23 Nov 03:10:13 03:14:11 29° 264° (W) 03:18:10
KKS-1 23 Nov 03:11:55 03:14:39 16° 64° (ENE) 03:17:23 437.445
ITUPSAT 1 23 Nov 03:16:24 03:20:45 34° 262° (W) 03:25:07 437.325
M-CUBED/EXP-1 PRIME 23 Nov 03:24:34 03:29:01 53° 292° (WNW) 03:33:32 437.505
CUBESAT XI-V 23 Nov 03:26:13 03:30:49 88° 254° (WSW) 03:35:28 437.345
STARS 23 Nov 03:32:41 03:33:14 10° 60° (ENE) 03:33:47 437.465
nSIGHT-1 23 Nov 03:41:50 03:43:36 14° 229° (SW) 03:45:23 .
BEESAT 2 23 Nov 03:50:28 03:53:57 28° 311° (NW) 03:57:30 435.950
AO-7 23 Nov 03:59:38 04:08:01 82° 291° (WNW) 04:16:23 .
DOVE 4 23 Nov 04:10:51 04:15:08 26° 93° (E) 04:19:12 437.250
SO-50 23 Nov 04:12:13 04:14:14 13° 37° (NE) 04:16:16 436.795
AO-85 23 Nov 04:16:54 04:20:34 39° 308° (NW) 04:24:24 145.980
ITAMSAT 1 23 Nov 04:22:44 04:27:44 48° 289° (WNW) 04:32:41 435.822/435.867
RS-15 23 Nov 04:37:08 04:48:01 47° 251° (WSW) 04:58:24 29.354- 29.394
YUBILEINY 23 Nov 04:42:50 04:51:09 51° 89° (E) 04:59:34 435.215
KKS-1 23 Nov 04:46:24 04:50:46 51° 260° (W) 04:55:09 437.445
LilacSat-2 23 Nov 04:54:53 04:56:18 12° 91° (E) 04:57:42 437.200
XW-2F 23 Nov 04:59:14 05:00:21 11° 91° (E) 05:01:26 145.980 - 146.000
STARS 23 Nov 05:04:27 05:08:52 83° 256° (WSW) 05:13:20 437.465
STRAND 1 23 Nov 05:13:15 05:16:12 16° 61° (ENE) 05:19:08 437.568
KAITUO 1B 23 Nov 05:22:11 05:24:41 17° 93° (E) 05:27:08 145.475/437.950
HO-68 23 Nov 05:41:38 05:46:09 17° 90° (E) 05:50:37 435.675
XW-2D 23 Nov 05:41:44 05:45:22 42° 99° (E) 05:49:00 145.860 - 145.880
FO-29 23 Nov 05:46:55 05:50:07 14° 51° (NE) 05:53:26 435.910
DOVE 4 23 Nov 05:48:09 05:52:51 36° 291° (WNW) 05:57:18 437.250
SO-50 23 Nov 05:50:50 05:55:29 74° 56° (ENE) 06:00:12 436.795
AO-7 23 Nov 05:54:06 05:59:34 20° 310° (NW) 06:05:01 .
XW-2B 23 Nov 05:56:32 06:00:20 63° 101° (ESE) 06:04:06 145.730 - 145.750
NUDT-PHONESAT 23 Nov 06:02:06 06:05:44 49° 99° (E) 06:09:20 437.300
SEEDS 23 Nov 06:07:16 06:08:33 11° 90° (E) 06:09:49 437.485
CUTE-I 23 Nov 06:09:36 06:14:57 62° 102° (ESE) 06:20:13 437.470
XW-2C 23 Nov 06:22:19 06:26:04 58° 285° (WNW) 06:29:50 145.795 - 145.815
LilacSat-2 23 Nov 06:27:06 06:30:48 47° 286° (WNW) 06:34:30 437.200
XW-2F 23 Nov 06:31:01 06:34:42 48° 286° (WNW) 06:38:22 145.980 - 146.000
YUBILEINY 23 Nov 06:40:23 06:48:12 35° 289° (WNW) 06:56:07 435.215
STRAND 1 23 Nov 06:49:39 06:54:46 69° 257° (WSW) 06:59:56 437.568
XW-2A 23 Nov 06:51:35 06:53:23 14° 93° (E) 06:55:12 145.665 - 145.685
KAITUO 1B 23 Nov 06:55:19 06:58:42 31° 289° (WNW) 07:02:04 145.475/437.950
CUBEBUG 2 23 Nov 06:57:22 07:01:16 38° 98° (E) 07:05:08 437.445
CUTE 1.7 + AOD 2 23 Nov 07:14:13 07:18:29 73° 285° (WNW) 07:22:45 437.475
XW-2D 23 Nov 07:17:12 07:19:09 14° 294° (WNW) 07:21:07 145.860 - 145.880
FO-29 23 Nov 07:26:56 07:33:34 67° 71° (ENE) 07:41:01 435.910
HO-68 23 Nov 07:27:24 07:34:37 83° 288° (WNW) 07:41:47 435.675
SO-50 23 Nov 07:33:23 07:35:21 13° 252° (WSW) 07:37:20 436.795
ZACube-1 23 Nov 07:34:53 07:38:32 29° 96° (E) 07:42:12 437.345
NUDT-PHONESAT 23 Nov 07:37:52 07:39:07 11° 295° (WNW) 07:40:22 437.300
AAUSAT CUBESAT 2 23 Nov 07:40:18 07:44:26 56° 100° (E) 07:48:32 437.432
SEEDS 23 Nov 07:40:23 07:44:35 60° 285° (WNW) 07:48:45 437.485
UWE-3 23 Nov 07:49:19 07:53:28 87° 100° (E) 07:57:38 435.000/436.395/437.385
CUTE-I 23 Nov 07:50:55 07:54:27 18° 298° (WNW) 07:57:58 437.470
PCSat 23 Nov 08:00:22 08:05:18 34° 52° (NE) 08:10:11 145.827
XW-2A 23 Nov 08:23:10 08:26:08 29° 288° (WNW) 08:29:06 145.665 - 145.685
FALCONSAT 3 23 Nov 08:23:34 08:26:06 18° 159° (SSE) 08:28:38 435.103
AO-73 23 Nov 08:24:08 08:28:17 83° 281° (W) 08:32:28 145.935
CUBEBUG 2 23 Nov 08:34:52 08:37:34 17° 294° (WNW) 08:40:15 437.445
UNISAT 6 23 Nov 08:37:26 08:41:52 53° 73° (ENE) 08:46:13 437.425
Oscar 11 23 Nov 08:37:56 08:42:17 89° 281° (W) 08:46:37 .
TIGRISAT 23 Nov 08:41:09 08:45:35 53° 73° (ENE) 08:49:55 435.000
PRISM 23 Nov 08:55:21 08:58:50 27° 69° (ENE) 09:02:22 437.425
ZACube-1 23 Nov 09:11:27 09:14:40 22° 292° (WNW) 09:17:53 437.345
FO-29 23 Nov 09:14:06 09:19:15 23° 272° (W) 09:24:50 435.910
BEESAT 3 23 Nov 09:14:54 09:15:58 11° 39° (NE) 09:17:00 437.485
HO-68 23 Nov 09:17:05 09:21:16 17° 307° (NW) 09:25:27 435.675
AAUSAT CUBESAT 2 23 Nov 09:17:28 09:19:23 13° 296° (WNW) 09:21:18 437.432
DELFI C3 23 Nov 09:24:34 09:28:33 62° 101° (ESE) 09:32:29 145.870
PCSat 23 Nov 09:43:46 09:48:40 35° 250° (WSW) 09:53:32 145.827
AIST 2D 23 Nov 09:44:17 09:47:06 24° 71° (ENE) 09:49:57 435.315
POLYITAN 1 23 Nov 09:51:09 09:53:01 13° 63° (ENE) 09:54:53 437.675
EO-88 23 Nov 09:54:04 09:57:42 69° 101° (E) 10:01:21 145.990 - 145.960
Max Valier Satellite 23 Nov 10:01:13 10:04:52 63° 284° (WNW) 10:08:30 145.860
FALCONSAT 3 23 Nov 10:01:20 10:04:41 33° 174° (S) 10:08:03 435.103
LO-87 23 Nov 10:12:37 10:14:06 12° 92° (E) 10:15:34 145.935 - 145.965
QB50P2 23 Nov 10:12:52 10:16:17 24° 68° (ENE) 10:19:43 145.880/145.840
ESTCUBE 1 23 Nov 10:13:29 10:15:00 11° 90° (E) 10:16:30 437.505/2401.250
UNISAT 6 23 Nov 10:16:21 10:18:50 14° 269° (W) 10:21:18 437.425
TIGRISAT 23 Nov 10:20:03 10:22:31 14° 268° (W) 10:24:58 435.000
BEESAT 2 23 Nov 10:30:40 10:33:27 18° 44° (NE) 10:36:14 435.950
PRISM 23 Nov 10:30:43 10:34:03 24° 265° (W) 10:37:26 437.425
BEESAT 3 23 Nov 10:50:11 10:54:08 85° 57° (ENE) 10:58:00 437.485
DUCHIFAT 1 23 Nov 10:57:47 11:01:52 52° 73° (ENE) 11:05:57 145.980
DELFI C3 23 Nov 11:01:44 11:02:44 11° 297° (WNW) 11:03:43 145.870
AO-85 23 Nov 11:07:22 11:10:57 21° 45° (NE) 11:14:42 145.980
EO-79 23 Nov 11:08:00 11:12:15 90° 276° (W) 11:16:29 145.935-145.965
NANOSAT C BR1 23 Nov 11:09:37 11:13:50 83° 76° (ENE) 11:18:04 145.865
Gurwin Techsat 1B 23 Nov 11:13:43 11:14:06 10° 57° (ENE) 11:14:28 435.225
AIST 2D 23 Nov 11:17:50 11:20:15 18° 266° (W) 11:22:40 435.315
POLYITAN 1 23 Nov 11:24:06 11:28:17 59° 260° (W) 11:32:28 437.675
FALCONSAT 3 23 Nov 11:40:07 11:43:24 30° 189° (S) 11:46:41 435.103
BUGSAT 1 23 Nov 11:40:56 11:44:49 38° 71° (ENE) 11:48:40 437.445
LO-87 23 Nov 11:44:23 11:47:39 36° 287° (WNW) 11:50:55 145.935 - 145.965
O/OREOS (USA 219) 23 Nov 11:47:02 11:50:14 19° 100° (E) 11:53:26 437.305
ESTCUBE 1 23 Nov 11:47:42 11:52:13 67° 285° (WNW) 11:56:42 437.505/2401.250
QB50P2 23 Nov 11:48:16 11:51:57 28° 264° (W) 11:55:37 145.880/145.840
VELOX 1 23 Nov 11:57:58 12:01:33 23° 95° (E) 12:05:06 145.980
Oscar 19 23 Nov 12:03:30 12:08:15 40° 69° (ENE) 12:13:00 437.125/150
BEESAT 2 23 Nov 12:07:33 12:11:27 48° 242° (WSW) 12:15:16 435.950
SPROUT 23 Nov 12:35:50 12:40:05 79° 286° (WNW) 12:44:19 437.525
DUCHIFAT 1 23 Nov 12:35:54 12:37:49 13° 269° (W) 12:39:43 145.980
DX 1 23 Nov 12:36:48 12:38:56 13° 91° (E) 12:41:02 434.975-435.025
M-CUBED/EXP-1 PRIME 23 Nov 12:37:23 12:39:39 16° 58° (ENE) 12:42:00 437.505
AO-85 23 Nov 12:46:59 12:51:39 57° 241° (WSW) 12:56:38 145.980
Gurwin Techsat 1B 23 Nov 12:47:48 12:53:05 75° 74° (ENE) 12:58:25 435.225
50 SAT 23 Nov 12:49:23 12:51:27 16° 94° (E) 12:53:30 437.505
AO-7 23 Nov 13:07:16 13:14:11 31° 57° (ENE) 13:21:08 .
UKube-1 23 Nov 13:12:38 13:15:52 20° 94° (E) 13:19:05 .
BUGSAT 1 23 Nov 13:17:30 13:20:16 17° 266° (W) 13:23:04 437.445
FALCONSAT 3 23 Nov 13:19:56 13:21:55 14° 204° (SSW) 13:23:54 435.103
O/OREOS (USA 219) 23 Nov 13:24:55 13:29:17 42° 297° (WNW) 13:33:41 437.305
VELOX 1 23 Nov 13:34:03 13:38:00 31° 291° (WNW) 13:41:54 145.980
Oscar 19 23 Nov 13:43:34 13:47:40 24° 266° (W) 13:51:47 437.125/150
NO-84 23 Nov 14:01:32 14:05:03 65° 134° (SE) 14:08:54 435.350 FM
ITAMSAT 1 23 Nov 14:01:36 14:06:10 32° 67° (ENE) 14:10:46 435.822/435.867
M-CUBED/EXP-1 PRIME 23 Nov 14:10:19 14:13:39 38° 257° (WSW) 14:17:18 437.505
DX 1 23 Nov 14:11:08 14:15:25 54° 287° (WNW) 14:19:40 434.975-435.025
50 SAT 23 Nov 14:20:54 14:23:30 22° 290° (WNW) 14:26:03 437.505
Gurwin Techsat 1B 23 Nov 14:31:05 14:33:34 13° 270° (W) 14:36:03 435.225
UKube-1 23 Nov 14:48:01 14:51:57 34° 290° (WNW) 14:55:51 .
YUBILEINY 23 Nov 14:53:43 15:00:42 25° 66° (ENE) 15:07:36 435.215
AO-7 23 Nov 14:58:14 15:06:24 63° 256° (WSW) 15:14:40 .
MOZHAYETS 4 23 Nov 15:04:28 15:09:01 64° 101° (E) 15:13:33
BEESAT 23 Nov 15:05:03 15:09:38 46° 100° (E) 15:14:10 436.000
DOVE 4 23 Nov 15:15:20 15:19:33 27° 66° (ENE) 15:23:53 437.250
ITUPSAT 1 23 Nov 15:16:26 15:21:09 59° 101° (ESE) 15:25:50 437.325
CUBESAT XI-V 23 Nov 15:23:24 15:27:10 23° 94° (E) 15:30:55 437.345
NO-84 23 Nov 15:39:44 15:42:44 22° 334° (NNW) 15:45:55 435.350 FM
ITAMSAT 1 23 Nov 15:40:55 15:45:33 32° 263° (W) 15:50:14 435.822/435.867
CUTE-I 23 Nov 15:54:34 15:57:09 14° 59° (ENE) 15:59:43 437.470
HO-68 23 Nov 16:12:08 16:15:41 15° 52° (NE) 16:19:14 435.675
XW-2D 23 Nov 16:23:09 16:25:53 20° 68° (ENE) 16:28:39 145.860 - 145.880
XW-2B 23 Nov 16:37:33 16:40:44 27° 71° (ENE) 16:43:58 145.730 - 145.750
KKS-1 23 Nov 16:37:40 16:41:35 29° 97° (E) 16:45:27 437.445
NUDT-PHONESAT 23 Nov 16:41:12 16:43:58 21° 69° (ENE) 16:46:45 437.300
MOZHAYETS 4 23 Nov 16:43:24 16:45:37 14° 297° (WNW) 16:47:51
BEESAT 23 Nov 16:43:41 16:47:02 19° 296° (WNW) 16:50:22 436.000
RS-15 23 Nov 16:47:33 16:57:52 34° 104° (ESE) 17:08:10 29.354- 29.394
YUBILEINY 23 Nov 16:49:31 16:58:20 73° 266° (W) 17:07:05 435.215
DOVE 4 23 Nov 16:52:16 16:56:59 38° 264° (W) 17:01:53 437.250
STARS 23 Nov 16:54:57 16:57:55 18° 93° (E) 17:00:52 437.465
ITUPSAT 1 23 Nov 16:55:41 16:58:28 16° 298° (WNW) 17:01:14 437.325
CUBESAT XI-V 23 Nov 17:00:20 17:04:34 35° 290° (WNW) 17:08:49 437.345
XW-2C 23 Nov 17:02:46 17:06:26 59° 75° (ENE) 17:10:08 145.795 - 145.815
LilacSat-2 23 Nov 17:08:05 17:11:49 77° 76° (ENE) 17:15:36 437.200
XW-2F 23 Nov 17:10:53 17:14:34 70° 75° (ENE) 17:18:17 145.980 - 146.000
NO-84 23 Nov 17:20:05 17:21:22 11° 355° (N) 17:22:41 435.350 FM
CUTE-I 23 Nov 17:31:04 17:36:26 84° 256° (WSW) 17:41:51 437.470
KAITUO 1B 23 Nov 17:34:04 17:37:43 75° 258° (WSW) 17:41:26 145.475/437.950
CUBEBUG 2 23 Nov 17:54:45 17:58:49 33° 71° (ENE) 18:02:48 437.445
HO-68 23 Nov 17:55:01 18:02:10 72° 71° (ENE) 18:09:21 435.675
XW-2D 23 Nov 17:56:43 17:59:53 26° 264° (W) 18:03:05 145.860 - 145.880
CUTE 1.7 + AOD 2 23 Nov 18:06:03 18:10:14 74° 77° (ENE) 18:14:27 437.475
XW-2B 23 Nov 18:12:16 18:14:55 18° 266° (W) 18:17:35 145.730 - 145.750
KKS-1 23 Nov 18:14:19 18:18:00 26° 293° (WNW) 18:21:39 437.445
NUDT-PHONESAT 23 Nov 18:14:43 18:17:41 23° 265° (W) 18:20:40 437.300
AAUSAT CUBESAT 2 23 Nov 18:29:54 18:33:37 34° 71° (ENE) 18:37:23 437.432
STARS 23 Nov 18:30:18 18:34:25 40° 289° (WNW) 18:38:30 437.465
ZACube-1 23 Nov 18:30:33 18:33:57 23° 69° (ENE) 18:37:18 437.345
SEEDS 23 Nov 18:31:07 18:35:17 86° 81° (E) 18:39:30 437.485
FO-29 23 Nov 18:41:46 18:42:59 10° 81° (E) 18:44:11 435.910
nSIGHT-1 23 Nov 18:42:17 18:44:38 19° 132° (SE) 18:46:59 .
UWE-3 23 Nov 18:45:24 18:49:47 66° 76° (ENE) 18:54:05 435.000/436.395/437.385
YUBILEINY 23 Nov 18:50:01 18:53:25 13° 286° (WNW) 18:56:48 435.215
XW-2A 23 Nov 18:53:05 18:56:23 76° 76° (ENE) 18:59:43 145.665 - 145.685
RS-15 23 Nov 18:57:03 19:09:23 74° 305° (NW) 19:21:40 29.354- 29.394
NO-84 23 Nov 18:57:47 19:00:13 15° 17° (NNE) 19:02:40 435.350 FM
STRAND 1 23 Nov 19:00:30 19:05:21 41° 98° (E) 19:10:07 437.568
AO-73 23 Nov 19:18:49 19:23:04 71° 75° (ENE) 19:27:16 145.935
CUBEBUG 2 23 Nov 19:31:51 19:35:27 23° 265° (W) 19:38:58 437.445
Oscar 11 23 Nov 19:31:59 19:36:14 66° 76° (ENE) 19:40:31 .
ISS 23 Nov 19:34:24 19:37:35 51° 139° (SE) 19:40:46 437.550
HO-68 23 Nov 19:45:21 19:50:29 21° 268° (W) 19:55:39 435.675
SO-50 23 Nov 20:05:38 20:09:10 24° 112° (ESE) 20:12:45 436.795
AAUSAT CUBESAT 2 23 Nov 20:06:14 20:09:09 19° 267° (W) 20:12:05 437.432
ZACube-1 23 Nov 20:06:19 20:10:05 29° 264° (W) 20:13:48 437.345
DELFI C3 23 Nov 20:09:18 20:12:51 32° 71° (ENE) 20:16:26 145.870
